Regional Weather Roundup
Issued by NWS

Home | Current Version | Previous Version | Graphics & Text | Print | Product List | Glossary On
Versions: 1 2 3 4 5 6 7 8 9 10 11 12 13 14 15 16 17 18 19 20 21 22 23 24 25 26 27 28 29 30 31 32 33 34 35 36 37 38 39 40 41 42 43 44 45 46 47 48 49 50
000
ASUS43 KLMK 212310
RWRKY
KENTUCKY REGIONAL WEATHER ROUNDUP
NATIONAL WEATHER SERVICE LOUISVILLE KY
700 PM EDT FRI JUL 21 2017

NOTE "FAIR" INDICATES FEW OR NO CLOUDS BELOW 12,000 FEET
WITH NO SIGNIFICANT WEATHER AND/OR OBSTRUCTIONS TO VISIBILITY.

KYZ001>023-026-027-061>063-070>075-220000-
WESTERN AND SOUTH CENTRAL KENTUCKY

CITY           SKY/WX    TMP DP  RH WIND       PRES   REMARKS
PADUCAH        FAIR      94  74  52 SW7       29.92F HX 104
HENDERSON      FAIR      94  78  60 SW3       29.91F HX 110
OWENSBORO      FAIR      93  78  61 S9        29.92F HX 108
HOPKINSVILLE   FAIR      92  75  56 SW9       29.95F HX 103
BOWLING GREEN  FAIR      95  71  45 SW10      29.96S HX 102
GLASGOW        FAIR      93  71  47 SW5       29.97F HX  99
$$

KYZ024-025-028>034-038-045-046-053-220000-
NORTH CENTRAL KENTUCKY

CITY           SKY/WX    TMP DP  RH WIND       PRES   REMARKS
LOUISVILLE/SDF FAIR      95  73  48 SW7       29.92F HX 104
LOUISVILLE/LOU FAIR      94  75  54 SW10      29.93F HX 105
FORT KNOX      FAIR      92  73  54 S7        29.94F HX 100
$$

KYZ035>037-039>044-047>052-055>060-089>105-220000-
NORTHEAST KENTUCKY

CITY           SKY/WX    TMP DP  RH WIND       PRES   REMARKS
LEXINGTON      FAIR      92  72  51 W6        29.98F HX  99
COVINGTON      FAIR      90  79  70 W7        29.95F HX 106
FRANKFORT      FAIR      92  70  48 SW8       29.95F HX  97
$$

KYZ054-064>069-076>088-106>120-220000-
SOUTHEAST KENTUCKY

CITY           SKY/WX    TMP DP  RH WIND       PRES   REMARKS
JACKSON        FAIR      90  73  57 W5        30.02S HX  98
LONDON         FAIR      91  69  48 W8        30.01S HX  96
SOMERSET       FAIR      90  68  48 W7        30.01S HX  93
MIDDLESBORO    FAIR      91  73  55 CALM      30.01S HX  99
MONTICELLO     MOCLDY    90  76  63 W14       30.02S HX 101
$$





USA.gov is the U.S. government's official web portal to all federal, state and local government web resources and services.